This is the latest recevied weather packets stored in our database for station/object N5GMJ. If no packets are shown the sender has not sent any weather packets the latest 10 day(s).
| Time | Temp. | Humidity | Pressure | Rain* | Wind** | Luminosity | Snow |
|---|---|---|---|---|---|---|---|
| 1777421064 | 22.78° C | 93% | 1010.6 hPa | 0 mm | - | - | - |
| 1777420760 | 22.78° C | 92% | 1010.7 hPa | 0 mm | - | - | - |
| 1777420456 | 22.78° C | 91% | 1010.8 hPa | 0 mm | - | - | - |
| 1777420153 | 23.33° C | 90% | 1010.8 hPa | 0 mm | - | - | - |
| 1777419849 | 23.33° C | 92% | 1010.9 hPa | 0 mm | - | - | - |
| 1777419546 | 22.78° C | 91% | 1010.7 hPa | 0 mm | - | - | - |
| 1777419245 | 22.22° C | 93% | 1010.8 hPa | 0 mm | - | - | - |
| 1777418943 | 22.22° C | 94% | 1010.8 hPa | 0 mm | - | - | - |
| 1777418637 | 21.67° C | 95% | 1010.4 hPa | 0 mm | - | - | - |
| 1777418334 | 21.11° C | 95% | 1009.9 hPa | 0 mm | - | - | - |
| 1777418030 | 20.56° C | 96% | 1010.2 hPa | 0 mm | - | - | - |
| 1777417726 | 20.56° C | 96% | 1010 hPa | 0 mm | - | - | - |
| 1777417422 | 20.56° C | 97% | 1010.4 hPa | 1.78 mm | - | - | - |
| 1777417118 | 20.56° C | 97% | 1010.9 hPa | 1.78 mm | - | - | - |
| 1777416814 | 20.56° C | 97% | 1011 hPa | 0 mm | - | - | - |
| 1777416509 | 20° C | 97% | 1010.4 hPa | 0 mm | - | - | - |
| 1777416206 | 20° C | 97% | 1010.7 hPa | 0 mm | - | - | - |
| 1777415905 | 20° C | 97% | 1010.9 hPa | 1.27 mm | - | - | - |
| 1777415601 | 20° C | 96% | 1010.8 hPa | 8.89 mm | - | - | - |
| 1777415297 | 20° C | 96% | 1010.8 hPa | 10.67 mm | - | - | - |
| 1777414992 | 20° C | 96% | 1011.7 hPa | 1.78 mm | - | - | - |
| 1777414692 | 20° C | 96% | 1011.7 hPa | 4.83 mm | - | - | - |
| 1777414387 | 20° C | 96% | 1011.5 hPa | 7.87 mm | - | - | - |
| 1777414088 | 20° C | 96% | 1011.9 hPa | 25.91 mm | - | - | - |
| 1777413783 | 20° C | 95% | 1011.1 hPa | 51.56 mm | - | - | - |
* Rain latest hour (hover to see other rain measurements)
** Current wind speed in m/s (hover to see current wind gust speed)